SL-14 R/B, 23005

Orbit data source: Space-Track

SL-14 R/B, 23005 is space debris in LEO originally from a launch on Sat, 12 Feb 1994 UTC launched from the Plesetsk Missile And Space Complex (PKMTR). Debris objects in space refer to the collection of defunct objects orbiting the Earth. Examples of debris include non-operational satellites, rocket bodies, and fragments generated from explosions, collisions, or faulty payload assembly.

Loading next visibility...
Identifier
23005, 1994-011G
Orbit
LEO
Last TLE update
19 hours ago
Origin
Manufacturer
Yuzhnoe
Mission
Spacecraft
Bus & Motor
S5M, Unknown motor
Mass
1,600 kg wet, 1,600 kg dry
Launch date (UTC)
1994-02-12 (31 years ago)
Launch vehicle
Unknown
Launch site
Plesetsk Missile And Space Complex (PKMTR)
Object type
Payload
Rocket body
Debris
Shape & HBR
Cyl, 2.7 m
Radar Cross Section
7.351 m², Large (>1 m²)

Expand to show TLE details & history

TLE from 19 hours ago
0 SL-14 R/B
1 23005U 94011G   25128.58233262  .00000037  00000-0  16342-3 0  9993
2 23005  82.5756 317.7258 0040290 299.2993 123.3827 12.55218164430992
Epoch: 2025-05-08T13:58Z
Definitive object data (Epoch: 2025-05-08T13:58:33.538Z)
Latitude
62.22061°
Longitude
-104.31443°
Altitude
1,470.801 km
Speed
7.125 km/s
True Right ascension
22h 07m 54s
True Declination
62° 05' 29"
Sunlit
Object was in daylight at TLE epoch
Visualization TLE readout
Latitude
80.66865°
Longitude
-66.96332°
Altitude
1,482.485 km
Speed
7.117 km/s
Apparent Right ascension
04h 31m 03s
Apparent Declination
33° 56' 15"
Sunlit
Object is in daylight
Visualization observer readout
Local Sidereal Time
17:22:25
Azimuth
11.017° NNE
Elevation
-15.199°
Doppler factor
1
Orbital elements
Apogee altitude
1,471.575 km
Perigee altitude
1,408.576 km
Semi-major axis
7,818.212 km
Eccentricity
0.004029
Inclination
82.5756°
RAAN
317.7258°
Arg. of periapsis
299.2993°
True anomaly
123.76715°
Mean anomaly
123.3827°
Eccentric anomaly
123.57503°
Mean motion
3.13966 °/min
BSTAR
0.00016342
Orbital period
114.66 mins
Loading maneuver chart data...
Loading SW <> Apogee altitude chart data...
Loading historical data...
Loading historical data...
Loading historical data...
Loading historical data...
Loading historical data...
Loading historical data...
Loading historical data...

SL-14 R/B Visibility forecast

Observer location: undefined°, undefined°

Span
Click to sort rows by Start time (UTC) header in descending order
Start Az.
Max El. time (UTC)
Max El. Az.
Max El.
End time (UTC)
End Az.
15 mins2025-05-09 12:41:08.270Z164.218° S2025-05-09 12:48:08.270Z99.982° ESE39.806°2025-05-09 12:56:08.270Z16.757° NNE
12 mins2025-05-09 14:39:08.270Z240.088° WSW2025-05-09 14:44:08.270Z285.134° WNW26.742°2025-05-09 14:51:08.270Z346.068° N
12 mins2025-05-09 22:47:08.270Z20.46° NNE2025-05-09 22:53:08.270Z69.907° E22.433°2025-05-09 22:59:08.270Z116.48° SE
15 mins2025-05-10 00:42:08.270Z346.772° N2025-05-10 00:49:08.270Z272.993° WNW43.443°2025-05-10 00:57:08.270Z185.746° SSW
|